Location: Bow
(51.5261°N, 0.0167°W)
Time: 22:56:24
(UTC+00:00)

Cosmos 1634 Rocket - Pass Details

Date: 18 September 2020
Orbit: 961 x 991 km, 82.9° (Epoch: 31 October)

Event Time Altitude Azimuth Distance (km) Brightness Sun altitude
Exits shadow 21:18:59 26° 214° (SSW) 1,785 5.2 -27.8°
Maximum altitude 21:22:27 60° 284° (WNW) 1,100 4.4 -28.1°
Drops below altitude 10° 21:28:36 10° 5° (N) 2,720 6.8 -28.8°
Sets 21:31:11 0° 9° (N) 3,675 7.5 -29.1°
